Regional Weather Roundup
Issued by NWS

Home | Current Version | Previous Version | Graphics & Text | Print | Product List | Glossary On
Versions: 1 2 3 4 5 6 7 8 9 10 11 12 13 14 15 16 17 18 19 20 21 22 23 24 25 26 27 28 29 30 31 32 33 34 35 36 37 38 39 40 41 42 43 44 45 46 47 48 49 50
000
ASUS45 KTFX 290619
RWRMT
MONTANA HOURLY WEATHER ROUNDUP
NATIONAL WEATHER SERVICE GREAT FALLS MT
1219 AM MDT TUE JUL 29 2014

NOTE: "FAIR" INDICATES FEW OR NO CLOUDS BELOW 12000 FEET WITH NO
SIGNIFICANT WEATHER AND/OR OBSTRUCTIONS TO VISIBILITY.

* THESE STATIONS ARE NOT UNDER NWS QUALITY CONTROL. THEY DO NOT
   REPORT WEATHER SUCH AS PRECIPITATION OR FOG.

MTZ001>007-043-290700-
WEST OF THE DIVIDE
CITY           SKY/WX    TMP DP  RH WIND       PRES   REMARKS
KALISPELL      CLEAR     57  52  83 CALM      30.12S
MISSOULA       PTCLDY    75  39  27 VRB3      30.13R
BUTTE          PTCLDY    59  41  51 E6        30.29S
MULLAN PASS    CLEAR     68  34  28 VRB3      30.33S
* LINCOLN      N/A       64  45  50 NE2G7      N/A
* LOOKOUT PASS N/A       66  48  52 NE1        N/A
* POLSON       N/A       70  42  36 N/A        N/A
* RONAN APT    CLEAR     63  48  58 N/A        N/A
* SEELEY LAKE  N/A       61  48  62 NE2        N/A
* THOMP F APT  CLEAR     67  41  39 N6G16      N/A
* YAAK HILL    N/A       67  47  49 E1         N/A
$$

MTZ008-052>055-290700-
SOUTHWEST MONTANA
CITY           SKY/WX    TMP DP  RH WIND       PRES   REMARKS
BOZEMAN        PTCLDY    72  43  35 S8        30.21S
DILLON         PTCLDY    64  45  50 W5        30.27R
W YELLOWSTONE  CLOUDY    64  45  50 E5        30.41S
* THREE FORKS  PTCLDY    73  48  41 N/A        N/A
* BOULDER HILL N/A       69  37  31 S1         N/A
* MONIDA PASS  N/A       60  47  62 N/A        N/A
* RAYNOLDS PAS N/A       63  61  93 NW4        N/A
* WHITEHALL    N/A       67  44  44 NE2G7      N/A
* WISE RIVER   N/A       62  41  46 S3         N/A
$$

MTZ009>010-012-014-046-048-049-054-290700-
EAST SLOPES AND CENTRAL MONTANA
CITY           SKY/WX    TMP DP  RH WIND       PRES   REMARKS
CUT BANK       CLEAR     72  45  38 SE9       30.20R
GREAT FALLS    MOCLDY    73  46  38 E10       30.16R
HELENA         CLEAR     75  41  30 W9        30.16R
MALMSTROM AFB  PTCLDY    72  48  43 SE6G16    30.18R
* CONRAD       CLEAR     66  52  61 NE5        N/A
* DEARBORN     N/A       66  47  51 SW2        N/A
* ROGERS PASS  N/A       63  40  43 NW3        N/A
* SAINT MARY   N/A       54  50  86 SE3        N/A
* SWEET GRASS  N/A       70  42  36 S12        N/A
* WHITE SULPH  N/A       67  39  36 NE7        N/A
$$

MTZ011-013-016-021-035-040-045-047-050-051-290700-
NORTH CENTRAL MONTANA
CITY           SKY/WX    TMP DP  RH WIND       PRES   REMARKS
HAVRE          MOCLDY    79  46  31 SE16      30.15F
LEWISTOWN      MOCLDY    73  41  32 E13       30.24S
* FORT BENTON  PTCLDY    79  45  30 NE12G17   30.15S
* CHESTER      N/A       71  48  44 E10G18     N/A
* DENTON       N/A       71  45  39 SE8        N/A
* GEYSER       N/A       71  52  51 N/A        N/A
* JUDITH GAP   N/A       72  43  35 E16G24     N/A
* LOMA         N/A       74  48  40 NE12       N/A
$$

MTZ017>020-022>027-061-062-290700-
NORTHEAST MONTANA
CITY           SKY/WX    TMP DP  RH WIND       PRES   REMARKS
GLASGOW        CLEAR     68  48  49 E13       30.19F
GLENDIVE       CLEAR     66  52  61 S9        30.24S
JORDAN         PTCLDY    63  45  52 CALM      30.20S
SIDNEY         CLEAR     66  54  65 S5        30.23S
WOLF POINT     CLEAR     64  48  56 E5        30.20S
* BEAVER HILL  N/A       62  54  75 SE13       N/A
* CIRCLE       N/A       66  50  56 N/A        N/A
* LINDSAY DVD  N/A       62  49  63 NE4        N/A
$$

MTZ028>042-056>058-290700-
SOUTHCENTRAL AND SOUTHEAST MONTANA
CITY           SKY/WX    TMP DP  RH WIND       PRES   REMARKS
BAKER          PTCLDY    59  52  78 SE8       30.26S
BILLINGS       CLOUDY    75  45  34 NE9       30.20S
LIVINGSTON     MOCLDY    70  41  35 W5        30.22S
MILES CITY     PTCLDY    72  54  53 SE7       30.20S
* LAUREL APT   CLOUDY    77  43  30 N7         N/A
* ROUNDUP APT  CLOUDY    75  39  27 N/A        N/A
* ALZADA       N/A       67  50  55 E11        N/A
* HYSHAM       N/A       75  42  31 E16G24     N/A
* LAME DEER    N/A       67  48  51 E7G12      N/A
* REED POINT   N/A       76  46  35 N/A        N/A
* ROSCOE HILL  N/A       69  43  39 S15G21     N/A
$$

REGIONAL REPORTS...DAKOTAS
CITY           SKY/WX    TMP DP  RH WIND       PRES   REMARKS
WILLISTON      CLEAR     66  55  68 CALM      30.22S
DICKINSON      PTCLDY    57  52  83 S10       30.24S
CROSBY         N/A       59  59 100 S7        30.23S
TIOGA          MOCLDY    55  55 100 CALM      30.27S
WATFORD CITY   N/A       55  54  96 CALM      30.22R
BISMARCK       CLEAR     57  54  90 CALM      30.24S
GRAND FORKS    CLEAR     55  54  96 W7        30.18S
FARGO          CLEAR     57  54  90 CALM      30.18F
BUFFALO SD     MOCLDY    63  52  68 SE9       30.21R
RAPID CITY     CLEAR     59  52  78 E6        30.28S
$$

REGIONAL REPORTS...WYOMING/IDAHO/WASHINGTON
CITY           SKY/WX    TMP DP  RH WIND       PRES   REMARKS
GILLETTE       MOCLDY    70  52  53 SE8       30.26S
SHERIDAN       CLOUDY    72  48  43 E5        30.23S
YELLOWSTONE LA CLOUDY    57  43  60 VRB3      30.51F
SALMON         MOCLDY    64  48  56 CALM      30.19R
MULLAN PASS    CLEAR     68  34  28 VRB3      30.33S
SAND POINT     CLEAR     61  52  72 CALM      30.07R
SPOKANE        FAIR      84  41  22 SE5       30.05S
$$

REGIONAL REPORTS...ALBERTA
CITY           SKY/WX    TMP DP  RH WIND       PRES   REMARKS
CALGARY        FAIR      66  57  73 SE7       30.19S
LETHBRIDGE     CLEAR     61  55  81 S9        30.16F
MEDICINE HAT   CLEAR     66  52  61 NE6       30.15S
EDMONTON       FAIR      64  61  90 E7        30.14S
WATERTON GATE  N/A       55  50  83 SW7        N/A
CARDSTON       N/A       63  54  73 W3         N/A
MILK RIVER     N/A       64  46  52 E3         N/A
$$

REGIONAL REPORTS...SASKATCHEWAN
CITY           SKY/WX    TMP DP  RH WIND       PRES   REMARKS
SWIFT CURRENT  CLEAR     57  54  90 SE10      30.23S
REGINA         N/A       63  61  93 S2        30.22S
VAL MARIE      N/A       64  54  70 SE10       N/A
ASSINIBOIA     N/A       57  52  83 E2         N/A
CORONACH       N/A       50  48  93 W2         N/A

$$



USA.gov is the U.S. government's official web portal to all federal, state and local government web resources and services.